Martinsburg, WV

5:47 AM EDT on April 27, 2017 (GMT -0400)
Eastern W Va Regional-Shepherd

Weather History for KMRB - September, 2013

Change the Weather History Date:

Monday, September 16, 2013

  Actual Average Record
Temperature  
Mean Temperature 63 °F 65 °F  
Max Temperature 71 °F 77 °F 98 °F (1991)
Min Temperature 54 °F 54 °F 39 °F (2001)
Degree Days  
Heating Degree Days 2 2  
Month to date heating degree days 18 22  
Since 1 July heating degree days 22 29  
Cooling Degree Days 0 3  
Month to date cooling degree days 98 69  
Year to date cooling degree days 1016 861  
Growing Degree Days 13 (Base 50)    
Moisture  
Dew Point 54 °F    
Average Humidity 66    
Maximum Humidity 87    
Minimum Humidity 44    
Precipitation  
Precipitation 0.14 in 0.13 in 2.26 in (1976)
Month to date precipitation 0.58 1.88  
Year to date precipitation 22.96 28.12  
Sea Level Pressure  
Sea Level Pressure 30.14 in    
Wind  
Wind Speed 5 mph (NW)    
Max Wind Speed 14 mph    
Max Gust Speed 22 mph    
Visibility 9 miles    
Events Rain    
T = Trace of Precipitation, MM = Missing Value Source: NWS Daily Summary

Daily Weather History Graph

Daily Weather History Graph

Search for Another Location

Airport or City:

Trip Planner

Search our weather history database for the weather conditions in past years. The results will help you decide how hot, cold, wet, or windy it might be!

Date:

Astronomy

Sep. 16, 2013 Rise Set
Actual Time 6:54 AM EDT 7:18 PM EDT
Civil Twilight 6:27 AM EDT 7:45 PM EDT
Nautical Twilight 5:55 AM EDT 8:16 PM EDT
Astronomical Twilight 5:23 AM EDT 8:49 PM EDT
Moon 5:25 PM EDT (9/16) 3:38 AM EDT (9/16)
Length of Visible Light 13h 17m
Length of Day
12h 24m
Waxing Gibbous, 90% of the Moon is Illuminated
Sep 16
Waxing Gibbous
Sep 19
Full
Sep 26
Last Quarter
Oct 4
New
Oct 11
First Quarter

Hourly Weather History & Observations

Time (EDT) Temp. Dew Point Humidity Pressure Visibility Wind Dir Wind Speed Gust Speed Precip Events Conditions
12:53 AM 62.1 °F 55.0 °F 78% 30.07 in 10.0 mi South 4.6 mph - N/A   Scattered Clouds
1:53 AM 60.1 °F 55.0 °F 83% 30.08 in 10.0 mi Calm Calm - N/A   Mostly Cloudy
2:53 AM 60.1 °F 55.0 °F 83% 30.06 in 10.0 mi SSW 3.5 mph - N/A   Mostly Cloudy
3:53 AM 60.1 °F 55.0 °F 83% 30.04 in 10.0 mi SW 3.5 mph - N/A   Clear
4:53 AM 59.0 °F 55.9 °F 90% 30.04 in 10.0 mi Calm Calm - N/A   Partly Cloudy
5:53 AM 60.1 °F 55.9 °F 86% 30.06 in 10.0 mi NNE 8.1 mph - N/A   Mostly Cloudy
6:53 AM 62.1 °F 57.0 °F 84% 30.11 in 9.0 mi NNW 13.8 mph 21.9 mph 0.00 in Rain Light Rain
7:36 AM 60.8 °F 57.2 °F 88% 30.13 in 5.0 mi North 6.9 mph - 0.11 in Rain Rain
7:45 AM 59.0 °F 55.4 °F 88% 30.13 in 4.0 mi North 5.8 mph - 0.12 in Rain Rain
7:53 AM 59.0 °F 55.9 °F 90% 30.12 in 4.0 mi NNE 4.6 mph - 0.13 in Rain Light Rain
8:22 AM 59.0 °F 57.2 °F 94% 30.13 in 6.0 mi Calm Calm - 0.00 in Rain Light Rain
8:46 AM 60.8 °F 57.2 °F 88% 30.14 in 7.0 mi Calm Calm - 0.00 in   Overcast
8:53 AM 60.1 °F 57.0 °F 90% 30.14 in 8.0 mi North 6.9 mph - 0.01 in   Overcast
9:09 AM 60.8 °F 57.2 °F 88% 30.15 in 6.0 mi Calm Calm - 0.00 in Rain Light Rain
9:53 AM 60.1 °F 55.9 °F 86% 30.16 in 10.0 mi NNW 4.6 mph - 0.00 in   Overcast
10:53 AM 61.0 °F 55.0 °F 81% 30.17 in 10.0 mi NW 4.6 mph - N/A   Overcast
11:53 AM 62.1 °F 55.0 °F 78% 30.18 in 10.0 mi NNW 5.8 mph - N/A   Overcast
12:53 PM 64.9 °F 54.0 °F 68% 30.17 in 10.0 mi NW 8.1 mph - N/A   Overcast
1:53 PM 69.1 °F 55.0 °F 61% 30.16 in 10.0 mi NNW 8.1 mph - N/A   Mostly Cloudy
2:53 PM 66.9 °F 52.0 °F 59% 30.16 in 10.0 mi NW 9.2 mph - N/A   Overcast
3:53 PM 68.0 °F 53.1 °F 59% 30.15 in 10.0 mi West 6.9 mph - N/A   Overcast
4:53 PM 70.0 °F 53.1 °F 55% 30.14 in 10.0 mi West 8.1 mph - N/A   Scattered Clouds
5:53 PM 71.1 °F 48.9 °F 45% 30.15 in 10.0 mi WNW 8.1 mph - N/A   Partly Cloudy
6:53 PM 69.1 °F 50.0 °F 51% 30.16 in 10.0 mi NW 4.6 mph - N/A   Partly Cloudy
7:53 PM 64.9 °F 51.1 °F 61% 30.18 in 10.0 mi Calm Calm - N/A   Partly Cloudy
8:53 PM 63.0 °F 52.0 °F 67% 30.21 in 10.0 mi NW 3.5 mph - N/A   Clear
9:53 PM 61.0 °F 51.1 °F 70% 30.22 in 10.0 mi NNW 3.5 mph - N/A   Clear
10:53 PM 55.0 °F 51.1 °F 86% 30.24 in 10.0 mi Calm Calm - N/A   Clear
11:53 PM 59.0 °F 51.1 °F 75% 30.26 in 10.0 mi North 5.8 mph - N/A   Mostly Cloudy